Weather in Tunoshna-gorodok 26

Russia / Yaroslavl Oblast     57°33′14″N   40°09′23″E
temp.,
°C
wind,
m/s
gust,
m/s
humid.,
%
clouds,
%
prec.,
mm/h
press.,
hPa
HPBL,
m
16 may, sun
sun1600:00+13ssw411930 0.0 1009227
03:00+12s410940 0.0 1010183
06:00+13ssw511930 0.0 1010377
09:00+17sw711752 0.0 1011859
12:00+19sw7106672 0.2 10121578
15:00+20sw69633 0.9 10121680
18:00+19sw510703 0.1 1011557
21:00+14sw47895 1.1 1013102
17 may, mon
mon1700:00+13wsw34932 0.0 101466
03:00+12w22926 0.0 101513
06:00+14ssw2289100 0.0 101772
09:00+18se117496 0.0 1017379
12:00+22se33618 0.0 10171160
15:00+23ese345566 0.0 10161268
18:00+22e477310 0.0 1015333
21:00+18ese5128494 0.1 1015236
18 may, tue
tue1800:00+16ese4119169 0.2 1014207
03:00+15se41093100 0.2 1014154
06:00+16se4128599 0.0 1014243
09:00+21se5126966 0.0 1014374
12:00+25se611575 0.0 10141187
15:00+26se6115557 0.0 10131956
18:00+24ese5126476 0.0 1012382
21:00+19ese5157586 0.0 1012344
19 may, wed
wed1900:00+17se514775 0.0 1012290
03:00+16se514825 0.0 1012244
06:00+17se615765 0.0 1012317
09:00+22se6146645 0.0 1012474
12:00+26se7135842 0.0 1011904
15:00+27se812525 0.0 10111222
18:00+24se714625 0.0 1010512
21:00+17s122277100 1.1 1012588
20 may, thu
thu2000:00+15s41086100 0.4 1011245
03:00+15sse379375 0.4 1011161
06:00+16ese37895 0.0 1010235
09:00+21se58765 0.0 1008717
12:00+24se8126416 0.0 10071462
15:00+23se915700 1.4 10061799
18:00+18s711765 0.8 10081126
21:00+15sse6128252 0.8 1008625